{"data":{"norad_id":65937,"intl_designator":"2025-225AD","name":"STARLINK-35473","alt_names":[],"object_type":"PAYLOAD","status":"ACTIVE","operator":null,"country":"US","launch_date":"2025-10-08","launch_site_code":"AFWTR","launch_vehicle":null,"mission":null,"orbit_class":"UNKNOWN","rcs_meters":null,"size_class":null,"mass_kg":null,"dimensions":null,"purposes":["comms"],"wikipedia_slug":null,"has_3d_model":false,"image_url":null,"decayed_at":null,"tle_current":{"epoch":"2026-09-20T11:40:38.385696Z","epoch_age_seconds":104315,"freshness":"FRESH","line1":"1 65937U 25225AD  26263.48655539  .00011367  00000+0  34712-3 0  9997","line2":"2 65937  53.1597 337.9381 0001008  70.8537 289.2575 15.34393615 53382","mean_motion":15.34393615,"eccentricity":0.0001008,"inclination_deg":53.1597,"raan_deg":337.9381,"arg_perigee_deg":70.8537,"mean_anomaly_deg":289.2575,"bstar":0.00034712,"rev_number":5338,"period_min":93.848148605598,"perigee_km":462.03265922933,"apogee_km":463.41177644765,"semimajor_km":6840.8592178385,"source":"CELESTRAK","updated_at":"2026-09-21T09:00:35.767892Z"}}}